Weather in Rio Mayo

Argentina     45°40′18″S   70°16′24″W
temp.,
°C
wind,
m/s
gust,
m/s
humid.,
%
clouds,
%
prec.,
mm/h
press.,
hPa
HPBL,
m
17 may, mon
mon1700:00+5ne4875100 0.0 1020116
03:00+5nne4572100 0.0 101859
06:00+5n4868100 0.0 1016146
09:00+5n3464100 0.0 101658
12:00+8n454637 0.0 1015284
15:00+12nnw453277 0.0 1012554
18:00+12n34355 0.0 101125
21:00+9wnw455565 0.0 101351
18 may, tue
tue1800:00+8nw336011 0.0 101219
03:00+7nw2367100 0.0 101112
06:00+7n4450100 0.0 101029
09:00+7nne4446100 0.0 100944
12:00+11nnw583799 0.0 1009325
15:00+14n553290 0.0 1006539
18:00+12nne4437100 0.0 100640
21:00+10ne3344100 0.0 100619
19 may, wed
wed1900:00+10nne3447100 0.0 100645
03:00+9nne3352100 0.0 100734
06:00+9nne4554100 0.0 100668
09:00+7nne2261100 0.0 100810
12:00+11n124766 0.0 1008202
15:00+13nw2341100 0.0 1008710
18:00+11sse2249100 0.0 100912
21:00+9se3354100 0.0 101120
20 may, thu
thu2000:00+9sse4459100 0.0 101248
03:00+8sse4563100 0.0 101262
06:00+7s3467100 0.0 101247
09:00+6sse338525 0.0 101334
12:00+9w22755 0.0 1014332
15:00+11wsw226612 0.0 1014749
18:00+9ssw447476 0.0 1015113
21:00+7sse3479100 0.0 101745
21 may, fri
fri2100:00+7ssw2279100 0.0 101816
03:00+7ssw3477100 0.0 101987
06:00+7sse3576100 0.0 1019115
09:00+7sse3576100 0.0 1020142
12:00+8sse457198 0.0 1020388
15:00+9s3367100 0.0 1020547
18:00+9se3566100 0.0 1020212
21:00+8s3467100 0.0 1022111